Weather History for KEFT - April, 2014

Change the Weather History Date:

Wednesday, April 2, 2014

  Actual Average (WUND) Record (WUND)
Temperature  
Mean Temperature 38 °F -  
Max Temperature 52 °F - - (-1)
Min Temperature 26 °F - - (-1)
Degree Days  
Heating Degree Days 26    
Moisture  
Dew Point 27 °F    
Average Humidity 66    
Maximum Humidity 100    
Minimum Humidity 35    
Precipitation  
Precipitation 0.00 in - - ()
Sea Level Pressure  
Sea Level Pressure 30.09 in    
Wind  
Wind Speed 9 mph (NE)    
Max Wind Speed 17 mph    
Max Gust Speed 23 mph    
Visibility 10 miles    
Events      
Averages and records for this station are not official NWS values.
T = Trace of Precipitation, MM = Missing Value Source: NWS Daily Summary

Daily Weather History Graph

Daily Weather History Graph

Search for Another Location

Airport or City:

Trip Planner

Search our weather history database for the weather conditions in past years. The results will help you decide how hot, cold, wet, or windy it might be!

Date:

Astronomy

Apr. 02, 2014 Rise Set
Actual Time 6:38 AM CDT 7:25 PM CDT
Civil Twilight 6:10 AM CDT 7:54 PM CDT
Nautical Twilight 5:36 AM CDT 8:28 PM CDT
Astronomical Twilight 5:01 AM CDT 9:03 PM CDT
Moon 8:19 AM CDT (4/2) 10:52 PM CDT (4/2)
Length of Visible Light 13h 43m
Length of Day
12h 46m
Waxing Crescent, 10% of the Moon is Illuminated
Apr 2
Waxing Crescent
Apr 7
First Quarter
Apr 15
Full
Apr 22
Last Quarter
Apr 29
New

Hourly Weather History & Observations

Time (CDT) Temp. Windchill Dew Point Humidity Pressure Visibility Wind Dir Wind Speed Gust Speed Precip Events Conditions
12:15 AM 34.0 °F 26.0 °F 27.3 °F 77% 30.07 in 10.0 mi West 10.4 mph - N/A   Clear
12:35 AM 33.4 °F 27.3 °F 27.1 °F 78% 30.08 in 10.0 mi West 6.9 mph - N/A   Clear
12:55 AM 32.9 °F 25.9 °F 26.8 °F 78% 30.09 in 10.0 mi WNW 8.1 mph - N/A   Clear
1:15 AM 32.0 °F 26.4 °F 30.6 °F 94% 30.08 in 10.0 mi NW 5.8 mph - N/A   Clear
1:35 AM 32.0 °F 27.5 °F 31.1 °F 96% 30.09 in 10.0 mi NW 4.6 mph - N/A   Clear
1:55 AM 31.1 °F 25.4 °F 30.9 °F 99% 30.09 in 10.0 mi NNW 5.8 mph - N/A   Clear
2:15 AM 31.1 °F 22.4 °F 30.9 °F 99% 30.08 in 10.0 mi North 10.4 mph - N/A   Clear
2:35 AM 30.7 °F 22.0 °F 30.2 °F 98% 30.08 in 10.0 mi North 10.4 mph - N/A   Clear
3:00 AM 29.3 °F 20.8 °F 29.3 °F 100% 30.07 in 10.0 mi North 9.2 mph - N/A   Clear
3:15 AM 28.0 °F 19.3 °F 28.0 °F 100% 30.07 in 10.0 mi North 9.2 mph - N/A   Clear
3:35 AM 29.3 °F 20.2 °F 29.3 °F 100% 30.07 in 10.0 mi North 10.4 mph - N/A   Clear
3:55 AM 29.3 °F 20.2 °F 29.3 °F 100% 30.07 in 10.0 mi North 10.4 mph - N/A   Clear
4:15 AM 28.4 °F 19.1 °F 28.4 °F 100% 30.07 in 10.0 mi North 10.4 mph - N/A   Clear
4:35 AM 27.9 °F 19.1 °F 27.9 °F 100% 30.07 in 10.0 mi North 9.2 mph - N/A   Clear
4:55 AM 27.7 °F 23.8 °F 27.7 °F 100% 30.08 in 10.0 mi NE 3.5 mph - N/A   Clear
5:15 AM 27.9 °F 24.0 °F 27.9 °F 100% 30.08 in 10.0 mi NNE 3.5 mph - N/A   Clear
5:35 AM 28.4 °F - 28.4 °F 100% 30.09 in 10.0 mi Calm Calm - N/A   Clear
5:55 AM 28.8 °F 23.7 °F 28.8 °F 100% 30.09 in 10.0 mi NNE 4.6 mph - N/A   Clear
6:15 AM 26.2 °F - 26.2 °F 100% 30.11 in 10.0 mi Calm Calm - N/A   Clear
7:35 AM 28.4 °F 22.2 °F 28.4 °F 100% 30.15 in 10.0 mi North 5.8 mph - N/A   Clear
7:55 AM 29.3 °F 21.5 °F 29.3 °F 100% 30.14 in 10.0 mi NNE 8.1 mph - N/A   Clear
8:15 AM 32.0 °F 24.8 °F 31.5 °F 98% 30.15 in 10.0 mi NE 8.1 mph - N/A   Clear
8:35 AM 32.7 °F 23.9 °F 30.6 °F 92% 30.15 in 10.0 mi NE 11.5 mph - N/A   Clear
8:55 AM 33.4 °F 26.6 °F 28.2 °F 81% 30.15 in 10.0 mi NE 8.1 mph - N/A   Clear
9:15 AM 34.0 °F 24.6 °F 25.5 °F 71% 30.15 in 10.0 mi NE 13.8 mph - N/A   Clear
9:35 AM 34.7 °F 26.9 °F 25.0 °F 68% 30.16 in 10.0 mi NE 10.4 mph - N/A   Clear
9:55 AM 36.0 °F 28.5 °F 25.2 °F 65% 30.15 in 10.0 mi ENE 10.4 mph - N/A   Clear
10:15 AM 37.4 °F 31.4 °F 24.8 °F 60% 30.15 in 10.0 mi NE 8.1 mph - N/A   Clear
10:35 AM 38.3 °F 31.9 °F 24.4 °F 57% 30.15 in 10.0 mi NE 9.2 mph - N/A   Clear
10:55 AM 39.2 °F 32.5 °F 24.8 °F 56% 30.14 in 10.0 mi NE 10.4 mph - N/A   Clear
11:15 AM 40.3 °F 34.9 °F 25.9 °F 56% 30.15 in 10.0 mi NE 8.1 mph - N/A   Clear
11:35 AM 42.1 °F 36.6 °F 25.9 °F 53% 30.15 in 10.0 mi NNE 9.2 mph - N/A   Clear
11:55 AM 42.3 °F 36.8 °F 25.5 °F 52% 30.15 in 10.0 mi NE 9.2 mph - N/A   Clear
12:15 PM 43.7 °F 40.3 °F 25.9 °F 50% 30.14 in 10.0 mi NE 5.8 mph - N/A   Clear
12:55 PM 45.9 °F 40.4 °F 26.4 °F 47% 30.13 in 10.0 mi NE 11.5 mph - N/A   Clear
1:15 PM 46.4 °F 42.9 °F 25.7 °F 44% 30.13 in 10.0 mi ENE 6.9 mph - N/A   Clear
1:35 PM 48.0 °F - 25.5 °F 41% 30.11 in 10.0 mi ENE 11.5 mph 16.1 mph N/A   Clear
1:55 PM 48.4 °F - 25.0 °F 40% 30.10 in 10.0 mi NE 15.0 mph 18.4 mph N/A   Clear
2:15 PM 49.1 °F - 24.4 °F 38% 30.10 in 10.0 mi ENE 10.4 mph 17.3 mph N/A   Clear
2:35 PM 49.8 °F - 24.4 °F 37% 30.09 in 10.0 mi NNE 11.5 mph 20.7 mph N/A   Clear
2:55 PM 50.0 °F - 24.8 °F 37% 30.07 in 10.0 mi NE 10.4 mph - N/A   Clear
3:15 PM 50.9 °F - 24.4 °F 36% 30.07 in 10.0 mi NE 13.8 mph 19.6 mph N/A   Clear
3:35 PM 51.3 °F - 25.0 °F 36% 30.07 in 10.0 mi ENE 15.0 mph 20.7 mph N/A   Clear
3:55 PM 51.1 °F - 25.0 °F 36% 30.06 in 10.0 mi NE 15.0 mph 19.6 mph N/A   Clear
4:15 PM 51.8 °F - 25.7 °F 36% 30.06 in 10.0 mi NE 12.7 mph 18.4 mph N/A   Clear
4:35 PM 51.6 °F - 25.7 °F 37% 30.06 in 10.0 mi NE 10.4 mph 19.6 mph N/A   Scattered Clouds
4:55 PM 51.1 °F - 25.7 °F 37% 30.06 in 10.0 mi ENE 9.2 mph - N/A   Mostly Cloudy
5:15 PM 51.6 °F - 26.1 °F 37% 30.05 in 10.0 mi ENE 10.4 mph 16.1 mph N/A   Mostly Cloudy
5:35 PM 50.9 °F - 24.3 °F 35% 30.05 in 10.0 mi ENE 9.2 mph 16.1 mph N/A   Mostly Cloudy
5:55 PM 50.0 °F - 25.3 °F 38% 30.05 in 10.0 mi ENE 12.7 mph 17.3 mph N/A   Mostly Cloudy
6:15 PM 49.3 °F - 27.3 °F 43% 30.05 in 10.0 mi East 12.7 mph 19.6 mph N/A   Overcast
6:35 PM 47.5 °F - 30.9 °F 53% 30.06 in 10.0 mi East 10.4 mph 18.4 mph N/A   Overcast
6:55 PM 45.9 °F 40.4 °F 28.4 °F 51% 30.06 in 10.0 mi East 11.5 mph 17.3 mph N/A   Overcast
7:20 PM 44.1 °F 36.5 °F 28.9 °F 55% 30.06 in 10.0 mi ENE 17.3 mph 21.9 mph N/A   Overcast
7:35 PM 43.0 °F 36.0 °F 29.1 °F 58% 30.06 in 10.0 mi East 13.8 mph 21.9 mph N/A   Overcast
7:55 PM 41.9 °F 35.0 °F 28.4 °F 59% 30.06 in 10.0 mi ENE 12.7 mph 18.4 mph N/A   Overcast
8:35 PM 41.0 °F 34.3 °F 27.0 °F 57% 30.07 in 10.0 mi ENE 11.5 mph 18.4 mph N/A   Overcast
8:55 PM 40.1 °F 32.7 °F 25.5 °F 56% 30.07 in 10.0 mi NE 12.7 mph 17.3 mph N/A   Overcast
9:15 PM 39.2 °F 31.2 °F 23.4 °F 53% 30.07 in 10.0 mi NE 13.8 mph 19.6 mph N/A   Overcast
9:35 PM 38.3 °F 29.7 °F 21.7 °F 51% 30.06 in 10.0 mi NE 15.0 mph 23.0 mph N/A   Overcast
9:55 PM 37.8 °F 28.6 °F 21.6 °F 52% 30.06 in 10.0 mi ENE 16.1 mph 21.9 mph N/A   Overcast
10:15 PM 37.8 °F 29.8 °F 22.1 °F 53% 30.07 in 10.0 mi NE 12.7 mph 21.9 mph N/A   Overcast
10:35 PM 37.6 °F 29.1 °F 23.0 °F 56% 30.06 in 10.0 mi NE 13.8 mph 23.0 mph N/A   Overcast
10:55 PM 36.9 °F 30.1 °F 23.4 °F 58% 30.06 in 10.0 mi ENE 9.2 mph 18.4 mph N/A   Overcast
11:15 PM 36.7 °F 28.0 °F 23.5 °F 59% 30.05 in 10.0 mi NE 13.8 mph 17.3 mph N/A   Overcast
11:35 PM 36.5 °F 28.7 °F 24.4 °F 62% 30.04 in 10.0 mi ENE 11.5 mph - N/A   Light Drizzle
11:55 PM 35.8 °F 27.8 °F 25.7 °F 67% 30.02 in 10.0 mi NE 11.5 mph 21.9 mph N/A   Overcast